Regional Weather Roundup
Issued by NWS Charleston, SC

Home | Current Version | Previous Version | Text Only | Print | Product List | Glossary On
Versions: 1 2 3 4 5 6 7 8 9 10 11 12 13 14 15 16 17 18 19 20 21 22 23 24 25 26 27 28 29 30 31 32 33 34 35 36 37 38 39 40 41 42 43 44 45 46 47 48 49 50
000
ASUS42 KCHS 310627
RWRCHS

Regional Weather Roundup
National Weather Service Charleston SC
200 AM EDT SAT JUL 31 2021

NOTE: "fair" indicates few or no clouds below 12,000 feet with no
significant weather and/or obstructions to visibility.

Not all stations are quality controlled. Use data with caution,
especially dewpoint observations.

SCZ027-030-031-034>040-042>050-310700-
...Southeast South Carolina...

CITY           SKY/WX    TMP DP  RH WIND       PRES   REMARKS
N Charleston   PTCLDY    81  79  94 S7        29.94F HX  90
6HR MIN TEMP:  80; 6HR MAX TEMP:  84;

Waterfront Prk   N/A     86  82  88 SW6       29.80F HX 104
Mount Pleasant CLOUDY    82  82 100 CALM      29.94F HX  97
Johns Island   FAIR      84  82  94 S8        29.95F HX 101
Pinopolis        N/A     82  81  94 SW6       29.88F HX  95
Moncks Corner  FAIR      81  81 100 CALM      29.94F HX  91
Summerville    CLOUDY    82  82 100 VRB3      29.93F HX  97
Beaufort MCAS  CLEAR     84  79  85 S6        29.96F HX  96
6HR MIN TEMP:  84; 6HR MAX TEMP:  88;

Beaufort Arpt  FAIR      82  79  89 SW5       29.95F HX  93
Hilton Head Is CLEAR     84  79  84 CALM      29.96F HX  96
Walterboro     MOCLDY    81  79  94 S5        29.96S
Allendale      FAIR      81  77  89 CALM      29.94S

...Southern Midlands and Pee Dee...

CITY           SKY/WX    TMP DP  RH WIND       PRES   REMARKS
Georgetown     CLOUDY    81  79  94 SW7       29.95S
Kingstree      FAIR      79  77  94 CALM      29.93F FOG
Orangeburg     CLEAR     79  77  94 CALM      29.95F
6HR MIN TEMP:  78; 6HR MAX TEMP:  87;

Barnwell       MOCLDY    79  75  89 CALM      29.95S
Aiken          FAIR      78  75  89 CALM      29.96F
Manning        FAIR      81  79  94 CALM      29.94F
Columbia       PTCLDY    80  76  87 CALM      29.93F
6HR MIN TEMP:  79; 6HR MAX TEMP:  90;

Sumter         CLEAR     81  75  81 CALM      29.92F
6HR MIN TEMP:  81; 6HR MAX TEMP:  89;

Florence       CLEAR     81  75  82 CALM      29.93F
6HR MIN TEMP:  81; 6HR MAX TEMP:  89;

Myrtle Beach   PTCLDY    82  79  90 SW7       29.94F HX  92
N Myrtle Beach CLEAR     82  77  84 SW9       29.93F HX  90
6HR MIN TEMP:  82; 6HR MAX TEMP:  83;


$$

GAZ063-065-086>088-099>101-113>116-118-119-134>141-150-310700-
...Southeast Georgia...

CITY           SKY/WX    TMP DP  RH WIND       PRES   REMARKS
Savannah Arpt  CLEAR     81  76  84 SW3       29.97F
6HR MIN TEMP:  81; 6HR MAX TEMP:  90;

Hunter AAF     CLEAR     82  76  80 SW6       29.94F
6HR MIN TEMP:  82; 6HR MAX TEMP:  90;

Fort Stewart   CLEAR     82  76  83 SW8       29.95F
6HR MIN TEMP:  82; 6HR MAX TEMP:  90;

Statesboro     PTCLDY    80  73  80 CALM      29.97S
Sylvania       CLEAR     79  75  87 CALM      29.97S
Claxton        FAIR      79  78  96 CALM      29.97S FOG
Millen           N/A     79  76  90 MISG      29.96S
Metter         FAIR      79 N/A N/A W3        29.97S
Reidsville     FAIR      79  77  94 S8        29.98S

...CSRA, Central and far Southeast Georgia...

CITY           SKY/WX    TMP DP  RH WIND       PRES   REMARKS
Thomson        PTCLDY    80  77  91 CALM      29.96F
Augusta-Bush   CLEAR     79  76  90 CALM      29.93F
6HR MIN TEMP:  79; 6HR MAX TEMP:  89; 6HR PCP:  0.02;

Augusta-Daniel CLEAR     84  76  76 W3        29.96F HX  93
Swainsboro     FAIR      81  70  69 CALM      29.98F
Vidalia        CLEAR     79  75  89 CALM      29.99S
Eastman        FAIR      80  74  83 W5        29.99F
Hazlehurst     NOT AVBL
Alma           PTCLDY    80  77  90 SW6       29.99F
6HR MIN TEMP:  80; 6HR MAX TEMP:  89;

Waycross       MOCLDY    80  79  96 SW6       30.00F
Jesup          FAIR      81  75  83 CALM      30.01F
Baxley         FAIR      79  79 100 CALM      29.99S
Brunswick      MOCLDY    80  77  88 SW8       30.00S
Saint Simons   PTCLDY    82  78  88 SW8       29.99F HX  91
6HR MIN TEMP:  82; 6HR MAX TEMP:  87;


$$

SCZ027-028-034-036>038-045-046-048>050-GAZ119-141-310700-
...Lake and Supplemental Coastal Observations...

STATION/POSITION TIME  TEMP    WIND        PRES    WAVE   SWELL
                       AIR SEA DIR/SP/G            HT/PER HT/PER/DIR
                 (UTC) (F)     (DEG/KT/KT) (MB)    (FT/S) (FT/S/D)
Winyah Bay       0545   83     230/  8     1014.0S
Lake Murray      0620   83     280/  2/  4   N/A
Chrlstn Harbor   NOT AVBL
ACE Basin NERRS  0545   83        CALM     1015.0S
Fort Pulaski     0542   84 84              1015.3F
Sapelo Island    0600   83     250/ 11     1015.0

$$

ANZ835-935-AMZ111-154-330-350-352-354-370-450-454-472-310700-
...C-MAN and Buoy Observations...

STATION/POSITION TIME  TEMP    WIND        PRES    WAVE   SWELL
                       AIR SEA DIR/SP/G            HT/PER HT/PER/DIR
                 (UTC) (F)     (DEG/KT/KT) (MB)    (FT/S) (FT/S/D)
Buoy 41004       0610   83 83  210/ 16/ 21 1014.4
Buoy 41008       0550   85 85  250/ 16/ 19 1014.3F   3/ 4
Folly Beach CMAN 0600   83     220/ 15/ 18 1014.8F
Capers Nearshore NOT AVBL
Capers NS Wave   0548      83                N/A     3/ 4
Fripp Nearshore  0608   85 84  210/ 16/ 23 1013.6F


STATION/POSITION TIME  TEMP    WIND        PRES    WAVE   SWELL
                       AIR SEA DIR/SP/G            HT/PER HT/PER/DIR
                 (UTC) (F)     (DEG/KT/KT) (MB)    (FT/S) (FT/S/D)
5E St. Marys GA  0600   82 84                N/A     2/ 4
Frying Pan Buoy  0600   83     230/ 17/ 21 1013.5
Buoy 41025       0600   82     240/ 17/ 23 1012.1
Cape Lookout NC  0600   82     230/ 10/ 14 1013.3F
Buoy 41002       0600   83     230/ 17/ 21 1016.8
Buoy 41010       0600   84     200/ 16/ 17 1017.5
St Augustine FL  0600   80 84  230/  6/  7 1017.3F


$$



USA.gov is the U.S. government's official web portal to all federal, state and local government web resources and services.